Location: The Saddle
(36.8333°N, 80.3417°W)
Time: 20:38:41
(UTC-05:00)

A-11 Canister half - Pass Details

Date: 15 December 2023
Orbit: 1526 x 1682 km, 47.3° (Epoch: 25 February)

Event Time Altitude Azimuth Distance (km) Brightness Sun altitude
Rises 13:18:13 0° 173° (S) 4,825 12.6 28.2°
Reaches altitude 10° 13:23:20 10° 151° (SSE) 3,874 11.8 27.9°
Maximum altitude 13:28:04 15° 121° (ESE) 3,547 11.2 27.6°
Drops below altitude 10° 13:32:50 10° 92° (E) 3,925 11.0 27.3°
Sets 13:38:01 0° 71° (ENE) 4,931 11.3 26.9°
